Hohenkirchen-Siegertsbrunn, Germany

5:19 AM CET on February 23, 2017 (GMT +0100)
Munich

Weather History for EDDM - September, 2013

Change the Weather History Date:

Monday, September 2, 2013

  Actual Average Record
Temperature  
Mean Temperature 55 °F -  
Max Temperature 64 °F 63 °F 78 °F (2006)
Min Temperature 46 °F 46 °F 41 °F (1999)
Degree Days  
Heating Degree Days 10    
Growing Degree Days 5 (Base 50)    
Moisture  
Dew Point 45 °F    
Average Humidity 67    
Maximum Humidity 93    
Minimum Humidity 48    
Precipitation  
Precipitation 0.00 in - - ()
Sea Level Pressure  
Sea Level Pressure 30.30 in    
Wind  
Wind Speed 8 mph ()    
Max Wind Speed 17 mph    
Max Gust Speed 24 mph    
Visibility 6.2 miles    
Events      
Averages and records for this station are not official NWS values.
T = Trace of Precipitation, MM = Missing Value Source: Averaged Metar Reports

Daily Weather History Graph

Daily Weather History Graph

Search for Another Location

Airport or City:

Trip Planner

Search our weather history database for the weather conditions in past years. The results will help you decide how hot, cold, wet, or windy it might be!

Date:

Astronomy

Sep. 02, 2013 Rise Set
Actual Time 6:32 AM CEST 7:52 PM CEST
Civil Twilight 6:00 AM CEST 8:24 PM CEST
Nautical Twilight 5:21 AM CEST 9:03 PM CEST
Astronomical Twilight 4:39 AM CEST 9:44 PM CEST
Moon 3:24 AM CEST (9/2) 6:02 PM CEST (9/2)
Length of Visible Light 14h 24m
Length of Day
13h 20m
Waning Crescent, 9% of the Moon is Illuminated
Sep 2
Waning Crescent
Sep 5
New
Sep 12
First Quarter
Sep 19
Full
Sep 27
Last Quarter

Hourly Weather History & Observations

Time (CEST) Temp. Windchill Dew Point Humidity Pressure Visibility Wind Dir Wind Speed Gust Speed Precip Events Conditions
12:20 AM 51.8 °F - 46.4 °F 82% 30.33 in 6.2 mi West 5.8 mph - N/A   Mostly Cloudy
12:50 AM 50.0 °F - 46.4 °F 87% 30.33 in 6.2 mi WSW 5.8 mph - N/A   Mostly Cloudy
1:20 AM 50.0 °F - 46.4 °F 87% 30.33 in 6.2 mi West 5.8 mph - N/A   Mostly Cloudy
1:50 AM 50.0 °F - 46.4 °F 87% 30.33 in 6.2 mi West 5.8 mph - N/A   Mostly Cloudy
2:20 AM 48.2 °F - 44.6 °F 87% 30.33 in 6.2 mi West 5.8 mph - N/A   Mostly Cloudy
2:50 AM 48.2 °F - 44.6 °F 87% 30.33 in 6.2 mi West 5.8 mph - N/A   Mostly Cloudy
3:20 AM 46.4 °F 42.9 °F 42.8 °F 87% 30.33 in 6.2 mi WSW 6.9 mph - N/A   Mostly Cloudy
3:50 AM 46.4 °F 42.9 °F 44.6 °F 93% 30.30 in 6.2 mi WSW 6.9 mph - N/A   Mostly Cloudy
4:20 AM 46.4 °F 44.3 °F 44.6 °F 93% 30.30 in - SSW 4.6 mph - N/A   Clear
4:50 AM 48.2 °F - 46.4 °F 93% 30.30 in - WSW 5.8 mph - N/A   Clear
5:20 AM 48.2 °F - 46.4 °F 93% 30.30 in - SW 5.8 mph - N/A   Clear
5:50 AM 48.2 °F - 46.4 °F 93% 30.30 in - West 5.8 mph - N/A   Clear
6:20 AM 50.0 °F - 46.4 °F 87% 30.30 in - WSW 6.9 mph - N/A   Clear
6:50 AM 50.0 °F - 46.4 °F 87% 30.30 in - WSW 8.1 mph - N/A   Clear
7:20 AM 50.0 °F - 46.4 °F 87% 30.30 in - WSW 10.4 mph - N/A   Clear
7:50 AM 51.8 °F - 46.4 °F 82% 30.30 in - West 8.1 mph - N/A   Clear
8:20 AM 53.6 °F - 46.4 °F 77% 30.30 in - West 9.2 mph - N/A   Clear
8:50 AM 53.6 °F - 46.4 °F 77% 30.30 in - WSW 11.5 mph - N/A   Clear
9:20 AM 55.4 °F - 46.4 °F 72% 30.30 in - WSW 10.4 mph - N/A   Clear
9:50 AM 57.2 °F - 46.4 °F 67% 30.30 in - West 11.5 mph - N/A   Clear
10:20 AM 59.0 °F - 46.4 °F 63% 30.30 in - West 13.8 mph - N/A   Clear
10:50 AM 60.8 °F - 46.4 °F 59% 30.30 in - West 13.8 mph - N/A   Clear
11:20 AM 60.8 °F - 46.4 °F 59% 30.30 in - West 16.1 mph - N/A   Clear
11:50 AM 62.6 °F - 42.8 °F 48% 30.30 in - West 17.3 mph - N/A   Clear
12:20 PM 60.8 °F - 44.6 °F 55% 30.30 in - West 12.7 mph 24.2 mph N/A   Clear
12:50 PM 60.8 °F - 42.8 °F 52% 30.30 in - West 15.0 mph - N/A   Clear
1:20 PM 60.8 °F - 44.6 °F 55% 30.30 in - West 13.8 mph - N/A   Clear
1:50 PM 60.8 °F - 44.6 °F 55% 30.30 in - West 15.0 mph - N/A   Clear
2:20 PM 60.8 °F - 46.4 °F 59% 30.30 in - West 11.5 mph - N/A   Clear
2:50 PM 62.6 °F - 44.6 °F 52% 30.30 in - West 12.7 mph - N/A   Clear
3:20 PM 62.6 °F - 44.6 °F 52% 30.27 in - WSW 13.8 mph - N/A   Clear
3:50 PM 60.8 °F - 44.6 °F 55% 30.27 in - WSW 12.7 mph - N/A   Clear
4:20 PM 62.6 °F - 42.8 °F 48% 30.27 in - West 12.7 mph - N/A   Clear
4:50 PM 62.6 °F - 42.8 °F 48% 30.27 in - West 9.2 mph - N/A   Clear
5:20 PM 62.6 °F - 44.6 °F 52% 30.27 in - West 10.4 mph - N/A   Clear
5:50 PM 62.6 °F - 46.4 °F 55% 30.27 in - WSW 10.4 mph - N/A   Clear
6:20 PM 62.6 °F - 44.6 °F 52% 30.27 in - West 8.1 mph - N/A   Clear
6:50 PM 64.4 °F - 44.6 °F 49% 30.27 in - WSW 10.4 mph - N/A   Clear
7:20 PM 64.4 °F - 46.4 °F 52% 30.27 in - WSW 11.5 mph - N/A   Clear
7:50 PM 62.6 °F - 46.4 °F 55% 30.27 in - SW 11.5 mph - N/A   Clear
8:20 PM 62.6 °F - 46.4 °F 55% 30.27 in - SW 10.4 mph - N/A   Clear
8:50 PM 62.6 °F - 46.4 °F 55% 30.27 in - SW 11.5 mph - N/A   Clear
9:20 PM 60.8 °F - 44.6 °F 55% 30.30 in - WSW 9.2 mph - N/A   Clear
9:50 PM 59.0 °F - 46.4 °F 63% 30.30 in - West 6.9 mph - N/A   Clear
10:20 PM 60.8 °F - 44.6 °F 55% 30.30 in - West 8.1 mph - N/A   Clear
10:50 PM 60.8 °F - 44.6 °F 55% 30.30 in - West 8.1 mph - N/A   Clear
11:20 PM 59.0 °F - 46.4 °F 63% 30.30 in - West 6.9 mph - N/A   Clear
11:50 PM 60.8 °F - 46.4 °F 59% 30.30 in - West 8.1 mph - N/A   Clear